TimeEST,TemperatureF,Dew PointF,Humidity,Sea Level PressureIn,VisibilityMPH,Wind Direction,Wind SpeedMPH,Gust SpeedMPH,PrecipitationIn,Events,Conditions,WindDirDegrees,DateUTC
12:52 AM,37.9,23.0,55,30.27,10.0,NNW,6.9,-,N/A,,Mostly Cloudy,330,2013-01-15 05:52:00
1:52 AM,37.9,24.1,57,30.28,10.0,NW,5.8,-,N/A,,Clear,320,2013-01-15 06:52:00
2:52 AM,36.0,25.0,64,30.26,10.0,Calm,Calm,-,N/A,,Scattered Clouds,0,2013-01-15 07:52:00
3:52 AM,36.0,25.0,64,30.25,10.0,Calm,Calm,-,N/A,,Overcast,0,2013-01-15 08:52:00
5:52 AM,30.9,24.1,76,30.25,10.0,Calm,Calm,-,N/A,,Clear,0,2013-01-15 10:52:00
6:52 AM,30.0,24.1,79,30.29,10.0,Calm,Calm,-,N/A,,Clear,0,2013-01-15 11:52:00
7:52 AM,28.9,24.1,82,30.32,10.0,North,3.5,-,N/A,,Clear,350,2013-01-15 12:52:00
8:52 AM,36.0,25.0,64,30.32,10.0,North,4.6,-,N/A,,Clear,350,2013-01-15 13:52:00
9:52 AM,39.0,21.9,50,30.33,10.0,NNW,6.9,-,N/A,,Clear,330,2013-01-15 14:52:00
10:52 AM,39.9,21.0,47,30.31,10.0,NNW,4.6,-,N/A,,Clear,340,2013-01-15 15:52:00
11:52 AM,39.9,21.0,47,30.29,10.0,NNW,4.6,-,N/A,,Clear,330,2013-01-15 16:52:00
12:52 PM,41.0,21.0,45,30.27,10.0,NNW,3.5,-,N/A,,Clear,330,2013-01-15 17:52:00
1:52 PM,41.0,21.0,45,30.27,10.0,WNW,3.5,-,N/A,,Clear,300,2013-01-15 18:52:00
2:52 PM,39.9,21.0,47,30.27,10.0,WNW,4.6,-,N/A,,Clear,290,2013-01-15 19:52:00
3:52 PM,39.9,21.9,49,30.26,10.0,West,3.5,-,N/A,,Clear,280,2013-01-15 20:52:00
4:52 PM,37.9,21.0,51,30.28,10.0,NW,6.9,-,N/A,,Clear,310,2013-01-15 21:52:00
5:52 PM,36.0,21.9,57,30.27,10.0,Calm,Calm,-,N/A,,Clear,0,2013-01-15 22:52:00
6:52 PM,34.0,21.9,61,30.29,10.0,Calm,Calm,-,N/A,,Clear,0,2013-01-15 23:52:00
7:52 PM,30.9,23.0,72,30.29,10.0,Calm,Calm,-,N/A,,Clear,0,2013-01-16 00:52:00
8:52 PM,32.0,24.1,73,30.27,10.0,Calm,Calm,-,N/A,,Clear,0,2013-01-16 01:52:00
9:52 PM,30.9,24.1,76,30.27,10.0,Calm,Calm,-,N/A,,Clear,0,2013-01-16 02:52:00
10:52 PM,30.9,24.1,76,30.25,10.0,Calm,Calm,-,N/A,,Clear,0,2013-01-16 03:52:00
11:52 PM,30.9,25.0,79,30.25,10.0,Calm,Calm,-,N/A,,Mostly Cloudy,0,2013-01-16 04:52:00